Regional Weather Roundup
Issued by NWS

Home | Current Version | Previous Version | Text Only | Print | Product List | Glossary On
Versions: 1 2 3 4 5 6 7 8 9 10 11 12 13 14 15 16 17 18 19 20 21 22 23 24 25 26 27 28 29 30 31 32 33 34 35 36 37 38 39 40 41 42 43 44 45 46 47 48 49 50
000
ASUS43 KBIS 180201
RWRND

NORTH DAKOTA REGIONAL WEATHER ROUNDUP
NATIONAL WEATHER SERVICE BISMARCK ND
900 PM CDT FRI APR 17 2015

NOTE: "FAIR" INDICATES FEW OR NO CLOUDS BELOW 12,000 FEET WITH NO
SIGNIFICANT WEATHER AND/OR OBSTRUCTIONS TO VISIBILITY.


NDZ001>003-009>011-017-180300-
NORTHWEST NORTH DAKOTA

CITY           SKY/WX    TMP DP  RH WIND       PRES   REMARKS
WILLISTON      CLEAR     60  25  26 NE8       30.06F
MINOT          CLEAR     50  24  36 N6        30.11R
MINOT AFB      CLEAR     54  26  34 NE6       30.10R
$$

NDZ018>021-031>035-040>046-180300-
SOUTHWEST NORTH DAKOTA

CITY           SKY/WX    TMP DP  RH WIND       PRES   REMARKS
BISMARCK       PTCLDY    62  30  29 NE6       30.07R
DICKINSON      PTCLDY    57  20  23 SE6       30.06S
GARRISON         N/A     58  32  37 NE8       30.08R
HETTINGER ARPT CLOUDY    54  22  28 E9        30.09S
$$

NDZ004>008-012>016-024-026-027-054-180300-
NORTHEAST NORTH DAKOTA

CITY           SKY/WX    TMP DP  RH WIND       PRES   REMARKS
GRAND FORKS    CLEAR     52  25  35 N10       30.09R
GRND FRKS AFB  CLEAR     51  25  35 N10       30.10R
DEVILS LAKE    CLEAR     54  23  30 NE13      30.11R
$$

NDZ022-023-025-028>030-036>039-047>053-180300-
SOUTHEAST NORTH DAKOTA

CITY           SKY/WX    TMP DP  RH WIND       PRES   REMARKS
FARGO          PTCLDY    63  22  20 N16       30.05R
JAMESTOWN      MOCLDY    58  27  30 NE12      30.05R
$$



USA.gov is the U.S. government's official web portal to all federal, state and local government web resources and services.